This is the latest recevied weather packets stored in our database for station/object N4OOJ-13. If no packets are shown the sender has not sent any weather packets the latest 10 day(s).
| Time | Temp. | Humidity | Pressure | Rain* | Wind** | Luminosity | Snow |
|---|---|---|---|---|---|---|---|
| 1777728626 | 14.44° C | 99% | 1013.2 hPa | 5.33 mm | - | - | - |
| 1777728026 | 14.44° C | 99% | 1013.5 hPa | 5.08 mm | - | - | - |
| 1777727421 | 14.44° C | 99% | 1013.2 hPa | 4.57 mm | - | - | - |
| 1777726827 | 14.44° C | 99% | 1013 hPa | 4.06 mm | - | - | - |
| 1777726222 | 14.44° C | 99% | 1012.9 hPa | 3.3 mm | - | - | - |
| 1777725616 | 15° C | 99% | 1012.9 hPa | 2.54 mm | - | - | - |
| 1777725016 | 15.56° C | 99% | 1012.9 hPa | 2.03 mm | - | - | - |
| 1777724428 | 16.11° C | 99% | 1012.8 hPa | 1.27 mm | - | - | - |
| 1777723822 | 16.11° C | 99% | 1012.6 hPa | 0.51 mm | - | - | - |
| 1777723216 | 16.67° C | 99% | 1012.2 hPa | 0 mm | - | - | - |
| 1777722634 | 16.67° C | 99% | 1011.7 hPa | 0 mm | - | - | - |
| 1777722033 | 16.11° C | 99% | 1011.4 hPa | 0 mm | - | - | - |
| 1777721416 | 16.11° C | 99% | 1011.6 hPa | 0.25 mm | - | - | - |
| 1777720816 | 16.11° C | 99% | 1011.5 hPa | 0.76 mm | - | - | - |
| 1777720222 | 16.11° C | 99% | 1011.7 hPa | 1.02 mm | - | - | - |
| 1777719616 | 16.67° C | 99% | 1011.8 hPa | 1.02 mm | - | - | - |
| 1777719016 | 16.67° C | 99% | 1011.9 hPa | 1.52 mm | - | - | - |
| 1777718429 | 16.67° C | 99% | 1011.9 hPa | 2.03 mm | - | - | - |
| 1777717828 | 16.67° C | 99% | 1012.8 hPa | 2.29 mm | - | - | - |
| 1777717222 | 16.67° C | 99% | 1012.8 hPa | 2.03 mm | - | - | - |
| 1777716623 | 16.67° C | 99% | 1012.7 hPa | 2.03 mm | - | - | - |
| 1777716027 | 16.67° C | 99% | 1012.8 hPa | 2.29 mm | - | - | - |
| 1777715421 | 16.67° C | 99% | 1013 hPa | 2.03 mm | - | - | - |
| 1777714816 | 16.67° C | 99% | 1013 hPa | 1.52 mm | - | - | - |
| 1777714223 | 16.67° C | 99% | 1013.1 hPa | 1.27 mm | - | - | - |
* Rain latest hour (hover to see other rain measurements)
** Current wind speed in m/s (hover to see current wind gust speed)